Perkinsville, VT

4:12 AM EST on December 10, 2016 (GMT -0500)
Hartness State

Weather History for KVSF - January, 2013

Change the Weather History Date:

Sunday, January 20, 2013

  Actual Average Record
Temperature  
Mean Temperature 32 °F 19 °F  
Max Temperature 43 °F 29 °F 54 °F (2006)
Min Temperature 20 °F 9 °F -2 °F (2003)
Degree Days  
Heating Degree Days 33 46  
Month to date heating degree days 783 909  
Since 1 July heating degree days 3189 3772  
Cooling Degree Days 0 0  
Month to date cooling degree days 0  
Year to date cooling degree days 0  
Moisture  
Dew Point 16 °F    
Average Humidity 61    
Maximum Humidity 88    
Minimum Humidity 33    
Precipitation  
Precipitation 0.01 in 0.08 in 0.02 in (2012)
Month to date precipitation 0.35 2.07  
Year to date precipitation 0.35 2.07  
Sea Level Pressure  
Sea Level Pressure 29.71 in    
Wind  
Wind Speed 9 mph (West)    
Max Wind Speed 26 mph    
Max Gust Speed 45 mph    
Visibility 10 miles    
Events Rain    
T = Trace of Precipitation, MM = Missing Value Source: NWS Daily Summary

Daily Weather History Graph

Daily Weather History Graph

Search for Another Location

Airport or City:

Trip Planner

Search our weather history database for the weather conditions in past years. The results will help you decide how hot, cold, wet, or windy it might be!

Date:

Astronomy

Jan. 20, 2013 Rise Set
Actual Time 7:16 AM EST 4:46 PM EST
Civil Twilight 6:45 AM EST 5:17 PM EST
Nautical Twilight 6:10 AM EST 5:52 PM EST
Astronomical Twilight 5:36 AM EST 6:26 PM EST
Moon 11:46 AM EST (1/20) 1:45 AM EST (1/20)
Length of Visible Light 10h 32m
Length of Day
9h 29m
Waxing Gibbous, 66% of the Moon is Illuminated
Jan 20
Waxing Gibbous
Jan 26
Full
Feb 3
Last Quarter
Feb 10
New
Feb 17
First Quarter

Hourly Weather History & Observations

Time (EST) Temp. Windchill Dew Point Humidity Pressure Visibility Wind Dir Wind Speed Gust Speed Precip Events Conditions
1:54 AM 30.0 °F - 23.0 °F 75% 29.76 in 9.0 mi Calm Calm - N/A   Overcast
2:54 AM 28.0 °F 22.8 °F 23.0 °F 81% 29.74 in 9.0 mi NNW 4.6 mph - N/A   Partly Cloudy
3:54 AM 26.1 °F - 21.0 °F 81% 29.70 in 10.0 mi Calm Calm - N/A   Clear
4:54 AM 24.1 °F - 21.0 °F 88% 29.65 in 10.0 mi Calm Calm - N/A   Clear
5:54 AM 24.1 °F - 21.0 °F 88% 29.61 in 10.0 mi Calm Calm - N/A   Clear
6:54 AM 24.1 °F 19.7 °F 21.0 °F 88% 29.58 in 10.0 mi Variable 3.5 mph - N/A   Clear
7:54 AM 26.1 °F - 21.9 °F 84% 29.57 in 10.0 mi Calm Calm - N/A   Clear
8:54 AM 33.1 °F 30.0 °F 25.0 °F 72% 29.54 in 10.0 mi Variable 3.5 mph - N/A   Clear
9:54 AM 36.0 °F - 25.0 °F 64% 29.53 in 10.0 mi Calm Calm - N/A   Overcast
10:54 AM 39.9 °F 31.4 °F 28.9 °F 65% 29.57 in 10.0 mi WSW 16.1 mph 29.9 mph 0.00 in Rain Light Rain
11:09 AM 39.2 °F 33.0 °F 30.2 °F 70% 29.55 in 10.0 mi SW 9.2 mph 16.1 mph 0.00 in Rain Light Rain
11:54 AM 39.0 °F 33.4 °F 30.0 °F 70% 29.57 in 10.0 mi SSW 8.1 mph 16.1 mph 0.01 in   Unknown
12:54 PM 42.1 °F 33.6 °F 15.1 °F 34% 29.58 in 10.0 mi West 18.4 mph 36.8 mph N/A   Scattered Clouds
1:54 PM 39.0 °F 31.0 °F 12.9 °F 34% 29.61 in 10.0 mi WNW 13.8 mph 28.8 mph N/A   Clear
2:54 PM 37.0 °F 26.7 °F 12.0 °F 36% 29.67 in 10.0 mi West 19.6 mph 31.1 mph N/A   Clear
4:54 PM 30.0 °F 17.2 °F 10.0 °F 43% 29.79 in 10.0 mi WNW 20.7 mph 28.8 mph N/A   Overcast
5:54 PM 28.9 °F 18.6 °F 7.0 °F 40% 29.81 in 10.0 mi West 12.7 mph 25.3 mph N/A   Scattered Clouds
6:54 PM 28.0 °F 17.5 °F 8.1 °F 43% 29.84 in 10.0 mi West 12.7 mph 24.2 mph N/A   Mostly Cloudy
7:54 PM 27.0 °F 13.9 °F 9.0 °F 47% 29.87 in 10.0 mi WSW 18.4 mph 33.4 mph N/A   Overcast
8:54 PM 25.0 °F 15.5 °F 6.1 °F 45% 29.90 in 10.0 mi WNW 9.2 mph 21.9 mph 0.00 in   Overcast
9:54 PM 24.1 °F 16.0 °F 3.0 °F 40% 29.92 in 10.0 mi WNW 6.9 mph 26.5 mph N/A   Overcast
10:54 PM 21.0 °F 8.1 °F 1.0 °F 42% 29.95 in 10.0 mi West 13.8 mph 20.7 mph N/A   Partly Cloudy
11:54 PM 19.9 °F 10.1 °F -0.0 °F 42% 29.96 in 10.0 mi WNW 8.1 mph 19.6 mph N/A   Clear